This is the latest recevied weather packets stored in our database for station/object DG6YGE-6. If no packets are shown the sender has not sent any weather packets the latest 10 day(s).
| Time | Temp. | Humidity | Pressure | Rain* | Wind** | Luminosity | Snow |
|---|---|---|---|---|---|---|---|
| 1788521350 | 22.78° C | 76% | 1007 hPa | 0 mm | - | 272 W/m² | - |
| 1788520771 | 22.78° C | 75% | 1007.2 hPa | 0 mm | - | 99 W/m² | - |
| 1788520152 | 23.33° C | 75% | 1006.8 hPa | 0 mm | - | 236 W/m² | - |
| 1788519552 | 22.78° C | 75% | 1007 hPa | 0 mm | - | 257 W/m² | - |
| 1788518952 | 22.78° C | 76% | 1007 hPa | 0 mm | - | 246 W/m² | - |
| 1788518352 | 22.78° C | 77% | 1007.4 hPa | 0 mm | - | 231 W/m² | - |
| 1788517752 | 22.22° C | 78% | 1007.2 hPa | 0 mm | - | 487 W/m² | - |
| 1788517152 | 22.22° C | 79% | 1007.6 hPa | 0 mm | - | 160 W/m² | - |
| 1788516552 | 22.22° C | 79% | 1007.8 hPa | 0 mm | - | 145 W/m² | - |
| 1788515952 | 22.22° C | 79% | 1007.9 hPa | 0 mm | - | 148 W/m² | - |
| 1788515352 | 21.67° C | 80% | 1007.9 hPa | 0 mm | - | 291 W/m² | - |
| 1788514752 | 21.67° C | 80% | 1007.7 hPa | 0 mm | - | 170 W/m² | - |
| 1788514152 | 21.11° C | 80% | 1008 hPa | 0 mm | - | 140 W/m² | - |
| 1788513552 | 21.11° C | 80% | 1008.1 hPa | 0 mm | - | 78 W/m² | - |
| 1788512952 | 21.11° C | 80% | 1008.1 hPa | 0 mm | - | 104 W/m² | - |
| 1788512352 | 21.11° C | 80% | 1008.4 hPa | 0 mm | - | 135 W/m² | - |
| 1788511757 | 21.11° C | 80% | 1008.3 hPa | 0 mm | - | 104 W/m² | - |
| 1788511152 | 21.11° C | 81% | 1008.4 hPa | 0 mm | - | 102 W/m² | - |
| 1788510552 | 21.11° C | 82% | 1008.4 hPa | 0 mm | - | 59 W/m² | - |
| 1788509952 | 21.11° C | 82% | 1008.5 hPa | 0 mm | - | 55 W/m² | - |
| 1788509352 | 21.11° C | 82% | 1008.4 hPa | 0 mm | - | 80 W/m² | - |
| 1788508752 | 21.11° C | 82% | 1008.3 hPa | 0 mm | - | 64 W/m² | - |
| 1788508152 | 21.11° C | 82% | 1008.6 hPa | 0 mm | - | 78 W/m² | - |
| 1788507552 | 20.56° C | 82% | 1008.8 hPa | 0 mm | - | 80 W/m² | - |
| 1788506952 | 20.56° C | 83% | 1008.9 hPa | 0 mm | - | 93 W/m² | - |
* Rain latest hour (hover to see other rain measurements)
** Current wind speed in m/s (hover to see current wind gust speed)